TimeEST,TemperatureF,Dew PointF,Humidity,Sea Level PressureIn,VisibilityMPH,Wind Direction,Wind SpeedMPH,Gust SpeedMPH,PrecipitationIn,Events,Conditions,WindDirDegrees,DateUTC
12:41 AM,33.8,32.0,93,29.88,3.0,WSW,3.5,-,0.01,Rain,Light Rain,240,2013-02-05 05:41:00
12:48 AM,33.8,32.0,93,29.88,2.5,Calm,Calm,-,0.01,Rain,Light Rain,0,2013-02-05 05:48:00
12:53 AM,34.0,32.0,92,29.91,2.5,Calm,Calm,-,0.02,,Overcast,0,2013-02-05 05:53:00
1:22 AM,33.8,32.0,93,29.88,1.8,Calm,Calm,-,0.00,,Overcast,0,2013-02-05 06:22:00
1:53 AM,33.1,32.0,96,29.91,1.8,WSW,3.5,-,0.01,,Overcast,250,2013-02-05 06:53:00
2:09 AM,33.8,32.0,93,29.89,1.8,West,3.5,-,N/A,,Overcast,270,2013-02-05 07:09:00
2:16 AM,33.8,32.0,93,29.89,2.0,West,3.5,-,N/A,,Overcast,260,2013-02-05 07:16:00
2:43 AM,33.8,32.0,93,29.89,4.0,West,3.5,-,N/A,,Overcast,260,2013-02-05 07:43:00
2:53 AM,34.0,32.0,92,29.92,5.0,WSW,4.6,-,N/A,,Overcast,250,2013-02-05 07:53:00
3:27 AM,33.8,32.0,93,29.89,5.0,West,5.8,-,N/A,,Overcast,270,2013-02-05 08:27:00
3:53 AM,34.0,32.0,92,29.91,7.0,West,4.6,-,N/A,,Overcast,280,2013-02-05 08:53:00
4:00 AM,33.8,32.0,93,29.89,6.0,West,4.6,-,N/A,,Overcast,280,2013-02-05 09:00:00
4:29 AM,33.8,32.0,93,29.89,6.0,Calm,Calm,-,N/A,,Overcast,0,2013-02-05 09:29:00
4:53 AM,33.1,32.0,96,29.91,4.0,SSE,3.5,-,N/A,,Overcast,160,2013-02-05 09:53:00
5:47 AM,33.8,32.0,93,29.88,1.8,SSE,3.5,-,N/A,,Overcast,150,2013-02-05 10:47:00
5:53 AM,32.0,32.0,100,29.90,1.2,Calm,Calm,-,N/A,,Overcast,0,2013-02-05 10:53:00
6:06 AM,33.8,32.0,93,29.88,2.5,Calm,Calm,-,N/A,,Overcast,0,2013-02-05 11:06:00
6:30 AM,33.8,30.2,87,29.89,1.0,Calm,Calm,-,N/A,,Overcast,0,2013-02-05 11:30:00
6:37 AM,33.8,30.2,87,29.89,3.0,South,3.5,-,N/A,,Overcast,170,2013-02-05 11:37:00
6:40 AM,33.8,30.2,87,29.88,1.5,Calm,Calm,-,N/A,,Overcast,0,2013-02-05 11:40:00
6:49 AM,33.8,30.2,87,29.88,0.8,Calm,Calm,-,N/A,,Overcast,0,2013-02-05 11:49:00
6:53 AM,33.1,30.9,92,29.91,2.0,Calm,Calm,-,N/A,,Overcast,0,2013-02-05 11:53:00
7:02 AM,33.8,30.2,87,29.89,3.0,Calm,Calm,-,N/A,,Overcast,0,2013-02-05 12:02:00
7:04 AM,33.8,32.0,93,29.89,2.0,Calm,Calm,-,N/A,,Overcast,0,2013-02-05 12:04:00
7:53 AM,33.1,32.0,96,29.92,2.0,Calm,Calm,-,N/A,,Overcast,0,2013-02-05 12:53:00
8:53 AM,33.1,32.0,96,29.92,2.0,Calm,Calm,-,N/A,,Overcast,0,2013-02-05 13:53:00
9:53 AM,34.0,32.0,92,29.92,3.0,SW,3.5,-,N/A,,Overcast,220,2013-02-05 14:53:00
10:08 AM,33.8,33.8,100,29.90,2.0,Calm,Calm,-,N/A,,Overcast,0,2013-02-05 15:08:00
10:28 AM,35.6,33.8,93,29.90,2.0,Calm,Calm,-,N/A,,Overcast,0,2013-02-05 15:28:00
10:37 AM,33.8,32.0,93,29.91,1.5,NW,3.5,-,N/A,,Overcast,320,2013-02-05 15:37:00
10:53 AM,35.1,34.0,96,29.92,1.2,Calm,Calm,-,N/A,,Overcast,0,2013-02-05 15:53:00
11:53 AM,35.1,33.1,92,29.93,1.8,West,4.6,-,N/A,,Overcast,270,2013-02-05 16:53:00
12:53 PM,36.0,30.9,82,29.93,5.0,West,15.0,23.0,N/A,,Haze,270,2013-02-05 17:53:00
1:53 PM,36.0,30.0,79,29.93,6.0,WSW,10.4,-,N/A,,Haze,250,2013-02-05 18:53:00
2:53 PM,36.0,28.9,76,29.92,7.0,West,6.9,-,N/A,,Scattered Clouds,270,2013-02-05 19:53:00
3:53 PM,36.0,28.0,73,29.93,7.0,West,8.1,-,N/A,,Overcast,260,2013-02-05 20:53:00
4:53 PM,36.0,28.0,73,29.94,7.0,West,6.9,-,N/A,,Overcast,280,2013-02-05 21:53:00
5:34 PM,35.6,28.4,75,29.92,2.0,West,3.5,-,0.00,Snow,Light Snow,260,2013-02-05 22:34:00
5:46 PM,33.8,28.4,81,29.91,2.0,Calm,Calm,-,0.01,Snow,Light Snow,0,2013-02-05 22:46:00
5:53 PM,34.0,28.9,82,29.94,2.0,West,3.5,-,0.01,Snow,Light Snow,260,2013-02-05 22:53:00
6:11 PM,33.8,30.2,87,29.92,2.0,Calm,Calm,-,0.00,Snow,Light Snow,0,2013-02-05 23:11:00
6:53 PM,33.1,30.0,89,29.94,2.0,East,3.5,-,0.00,,Overcast,80,2013-02-05 23:53:00
7:53 PM,33.1,30.0,89,29.94,4.0,NE,4.6,-,N/A,,Overcast,40,2013-02-06 00:53:00
8:53 PM,33.1,30.9,92,29.95,3.0,Calm,Calm,-,N/A,,Overcast,0,2013-02-06 01:53:00
9:53 PM,33.1,30.9,92,29.97,4.0,Calm,Calm,-,N/A,,Overcast,0,2013-02-06 02:53:00
10:50 PM,32.0,30.2,93,29.97,3.0,Calm,Calm,-,0.00,,Overcast,0,2013-02-06 03:50:00
10:53 PM,32.0,30.9,96,30.00,3.0,Calm,Calm,-,0.00,,Overcast,0,2013-02-06 03:53:00
11:35 PM,33.8,30.2,87,29.99,3.0,West,3.5,-,N/A,,Overcast,270,2013-02-06 04:35:00
11:53 PM,34.0,30.0,85,30.02,6.0,West,6.9,-,N/A,,Overcast,280,2013-02-06 04:53:00